Date String (YYYY-MM-DD hh:mm:ss) UTC,Instrument flags,Ambient pressure (hPa),Sample flow (lpm),Bypass flow (lpm),Sample temperature (°C),Ambient temperature (°C),ASC tube jacket temperature (°C),LED temperature (°C),Box temperature (°C),Sample RH (%),Span deviation,Mass concentration (μg/m³),Mass concentration (μg/m³),Mass concentration (μg/m³)
DateTimeUTC,F1_M11,P_M11,Q1_M11,Q2_M11,T1_M11,T2_M11,T3_M11,T4_M11,T5_M11,U1_M11,ZSPAN_M11,X2_M11,X0_M11,X1_M11
2022-10-01 22:00:00,,0827.0,5.01,0.00,29.7,28.4,00.0,38.4,31.6,19.6,0000.0,0001.13,0003.24,0000.77
2022-10-01 22:01:00,,0826.9,5.00,0.00,29.7,28.4,00.0,38.4,31.6,19.8,0000.0,0001.24,0003.64,0000.86
2022-10-01 22:02:00,,0826.9,5.00,0.00,29.8,28.4,00.0,38.4,31.6,19.6,0000.0,0001.35,0003.89,0000.92
2022-10-01 22:03:00,,0827.1,5.00,0.00,29.8,28.4,00.0,38.4,31.7,19.9,0000.0,0001.49,0004.13,0000.98
2022-10-01 22:04:00,,0826.8,5.00,0.00,29.8,28.4,00.0,38.5,31.7,20.0,0000.0,0001.60,0004.24,0001.05
2022-10-01 22:05:00,,0826.7,5.00,0.00,29.8,28.4,00.0,38.5,31.7,19.3,0000.0,0001.67,0004.33,0001.12
2022-10-01 22:06:00,,0826.6,5.00,0.00,29.8,28.4,00.0,38.5,31.7,19.3,0000.0,0001.68,0003.31,0001.17
2022-10-01 22:07:00,,0826.7,4.99,0.00,29.8,28.4,00.0,38.5,31.7,19.8,0000.0,0001.68,0003.20,0001.22
2022-10-01 22:08:00,,0826.7,5.00,0.00,29.8,28.4,00.0,38.5,31.7,19.6,0000.0,0001.72,0003.24,0001.27
2022-10-01 22:09:00,,0826.7,5.01,0.00,29.8,28.4,00.0,38.5,31.7,20.3,0000.0,0001.72,0003.28,0001.27
2022-10-01 22:10:00,,0826.7,4.99,0.00,29.8,28.4,00.0,38.5,31.7,20.7,0000.0,0001.76,0003.29,0001.27
2022-10-01 22:11:00,,0826.6,5.00,0.00,29.8,28.4,00.0,38.5,31.7,21.5,0000.0,0001.73,0002.83,0001.27
2022-10-01 22:12:00,,0826.7,5.00,0.00,29.8,28.5,00.0,38.5,31.7,21.4,0000.0,0001.70,0002.53,0001.25
2022-10-01 22:13:00,,0826.7,4.99,0.00,29.9,28.5,00.0,38.6,31.8,20.7,0000.0,0001.66,0002.36,0001.26
2022-10-01 22:14:00,,0826.7,5.01,0.00,29.9,28.5,00.0,38.6,31.8,19.9,0000.0,0001.62,0002.33,0001.26
2022-10-01 22:15:00,,0826.8,4.99,0.00,29.9,28.6,00.0,38.6,31.8,21.1,0000.0,0001.62,0002.41,0001.26
2022-10-01 22:16:00,,0827.0,5.01,0.00,29.9,28.7,00.0,38.6,31.8,20.7,0000.0,0001.69,0002.58,0001.26
2022-10-01 22:17:00,,0827.1,4.99,0.00,29.9,28.7,00.0,38.6,31.8,19.2,0000.0,0001.73,0002.67,0001.28
2022-10-01 22:18:00,,0827.0,5.01,0.00,30.0,28.8,00.0,38.6,31.9,23.7,0000.0,0001.76,0002.81,0001.27
2022-10-01 22:19:00,,0826.9,4.99,0.00,30.0,28.8,00.0,38.7,31.9,22.3,0000.0,0001.71,0002.72,0001.24
2022-10-01 22:20:00,,0826.9,5.00,0.00,30.0,28.8,00.0,38.7,31.9,22.7,0000.0,0001.72,0002.78,0001.21
2022-10-01 22:21:00,,0827.0,5.01,0.00,30.0,28.8,00.0,38.7,31.9,23.1,0000.0,0001.63,0002.64,0001.17
2022-10-01 22:22:00,,0827.2,4.98,0.00,30.0,28.8,00.0,38.7,31.9,22.7,0000.0,0001.58,0002.57,0001.14
2022-10-01 22:23:00,,0826.9,5.01,0.00,30.0,28.7,00.0,38.7,31.9,22.9,0000.0,0001.54,0002.52,0001.11
2022-10-01 22:24:00,,0826.9,5.00,0.00,30.0,28.8,00.0,38.7,32.0,23.5,0000.0,0001.51,0002.54,0001.08
2022-10-01 22:25:00,,0826.9,4.99,0.00,30.1,28.5,00.0,38.7,32.0,22.9,0000.0,0001.45,0002.39,0001.04
2022-10-01 22:26:00,,0826.9,5.00,0.00,30.0,27.0,00.0,38.7,31.8,20.1,0000.0,0001.44,0002.35,0001.03
2022-10-01 22:27:00,,0826.9,5.00,0.00,30.0,26.4,00.0,38.7,31.7,19.6,0000.0,0001.39,0002.26,0001.01
2022-10-01 22:28:00,,0826.9,5.00,0.00,29.9,26.5,00.0,38.6,31.6,19.1,0000.0,0001.32,0002.14,0000.97
2022-10-01 22:29:00,,0826.8,5.00,0.00,29.8,26.8,00.0,38.6,31.5,19.7,0000.0,0001.29,0002.06,0000.96
2022-10-01 22:30:00,,0826.8,5.00,0.00,29.8,27.1,00.0,38.6,31.5,19.3,0000.0,0001.33,0002.15,0000.98
2022-10-01 22:31:00,,0826.7,5.01,0.00,29.7,27.4,00.0,38.5,31.5,19.8,0000.0,0001.30,0002.04,0001.00
2022-10-01 22:32:00,,0826.7,4.99,0.00,29.7,27.6,00.0,38.5,31.5,20.0,0000.0,0001.29,0001.98,0001.01
2022-10-01 22:33:00,,0826.6,5.01,0.00,29.7,27.8,00.0,38.5,31.5,20.1,0000.0,0001.31,0002.02,0001.03
2022-10-01 22:34:00,,0826.5,5.00,0.00,29.7,28.0,00.0,38.5,31.5,19.3,0000.0,0001.37,0002.17,0001.06
2022-10-01 22:35:00,,0826.5,4.99,0.00,29.7,28.2,00.0,38.5,31.6,20.2,0000.0,0001.38,0002.14,0001.09
2022-10-01 22:36:00,,0826.5,5.00,0.00,29.7,28.3,00.0,38.5,31.6,20.1,0000.0,0001.42,0002.22,0001.13
2022-10-01 22:37:00,,0826.7,5.00,0.00,29.8,28.4,00.0,38.5,31.6,22.5,0000.0,0001.41,0002.19,0001.12
2022-10-01 22:38:00,,0826.8,5.00,0.00,29.8,28.4,00.0,38.5,31.7,24.0,0000.0,0001.40,0002.17,0001.10
2022-10-01 22:39:00,,0826.9,5.00,0.00,29.8,28.5,00.0,38.5,31.7,23.6,0000.0,0001.42,0002.23,0001.08
2022-10-01 22:40:00,,0827.0,4.98,0.00,29.8,28.6,00.0,38.5,31.7,24.4,0000.0,0001.39,0002.17,0001.06
2022-10-01 22:41:00,,0827.0,5.01,0.00,29.8,28.6,00.0,38.5,31.8,24.1,0000.0,0001.40,0002.25,0001.04
2022-10-01 22:42:00,,0827.0,5.01,0.00,29.9,28.6,00.0,38.5,31.8,23.8,0000.0,0001.44,0002.36,0001.03
2022-10-01 22:43:00,,0827.0,4.99,0.00,29.9,28.7,00.0,38.6,31.8,24.2,0000.0,0001.50,0002.52,0001.02
2022-10-01 22:44:00,,0827.0,5.01,0.00,29.9,28.7,00.0,38.6,31.8,23.8,0000.0,0001.52,0002.60,0001.01
2022-10-01 22:45:00,,0827.1,4.99,0.00,29.9,28.7,00.0,38.6,31.9,24.1,0000.0,0001.48,0002.60,0000.98
2022-10-01 22:46:00,,0826.9,5.00,0.00,29.9,28.8,00.0,38.6,31.9,23.3,0000.0,0001.49,0002.68,0000.96
2022-10-01 22:47:00,,0826.8,5.00,0.00,30.0,28.7,00.0,38.6,31.9,22.4,0000.0,0001.45,0002.72,0000.92
2022-10-01 22:48:00,,0826.8,4.99,0.00,30.0,28.7,00.0,38.7,31.9,21.5,0000.0,0001.47,0003.67,0000.91
2022-10-01 22:49:00,,0826.8,5.00,0.00,30.0,28.7,00.0,38.7,31.9,21.0,0000.0,0001.50,0004.08,0000.91
2022-10-01 22:50:00,,0826.7,4.99,0.00,30.0,28.8,00.0,38.7,31.9,22.0,0000.0,0001.47,0004.05,0000.90
2022-10-01 22:51:00,,0826.7,5.00,0.00,30.0,28.9,00.0,38.7,32.0,22.4,0000.0,0001.49,0004.10,0000.90
2022-10-01 22:52:00,,0826.7,5.00,0.00,30.1,28.9,00.0,38.7,32.0,23.1,0000.0,0001.54,0004.32,0000.90
2022-10-01 22:53:00,,0826.8,4.99,0.00,30.1,28.9,00.0,38.7,32.0,22.2,0000.0,0001.55,0004.36,0000.90
2022-10-01 22:54:00,,0826.8,5.01,0.00,30.1,27.7,00.0,38.7,31.9,23.0,0000.0,0001.54,0004.32,0000.91
2022-10-01 22:55:00,,0826.7,5.02,0.00,30.0,26.7,00.0,38.7,31.8,22.5,0000.0,0001.57,0004.45,0000.89
2022-10-01 22:56:00,,0826.7,5.00,0.00,30.0,26.7,00.0,38.6,31.7,22.5,0000.0,0001.59,0004.38,0000.89
2022-10-01 22:57:00,,0826.7,4.99,0.00,29.9,27.0,00.0,38.6,31.6,22.4,0000.0,0001.60,0004.41,0000.90
2022-10-01 22:58:00,,0826.7,5.00,0.00,29.8,27.3,00.0,38.6,31.6,22.4,0000.0,0001.63,0004.44,0000.90
2022-10-01 22:59:00,,0826.7,4.99,0.00,29.8,27.6,00.0,38.6,31.6,22.6,0000.0,0001.58,0003.62,0000.90
